User: anonymous   Login
Location: CNYAC Observatory
(43.2150°N, 74.9500°W)
Time: 19:47:55
(UTC-04:00)
Language:

Cosmos 1300 Rocket - Orbit

View from above orbital plane
View from above orbital plane
View from above satellite
View from above satellite

Ground track
Ground track

The orbit data is extracted from the following two-line orbital elements,

1 12786U 81082B   16176.86047801  .00000092  00000-0  80527-5 0  9996
2 12786  82.4895 304.4592 0017505 359.6515   0.4685 14.84623778881797
Epoch (UTC): 24 June 2016 20:39:05
Eccentricity: 0.0017505
inclination: 82.4895°
perigee height: 602 km
apogee height: 627 km
right ascension of ascending node: 304.4592°
argument of perigee: 359.6515°
revolutions per day: 14.84623778
mean anomaly at epoch: 0.4685°
orbit number at epoch: 88179

The dashed part of the orbit path shows where the satellite is in the earth's shadow,  

DLR